Flag for Canada Weather past 2 weeks in Arviat, Nunavut Territory, Canada

Now
-9 °F

Passing clouds.


Feels Like: -26 °F
Forecast: N/A
Wind: 8 mph from West

Location: Arviat Airport

Current Time: Feb 27, 2015 at 3:41:42 PM

Latest Report: Feb 27, 2015 at 3:00 PM


Visibility: 15 mi

Pressure: 29.93 "Hg

Humidity: 77%

Dew point: -15 °F

Location of ArviatLocation

Historic Weather in Arviat — Graph

°F

Arviat temperature yesterday

Maximum temperature yesterday: -2 °F (at 3:00 PM)
Minimum temperature yesterday: -13 °F (at 12:00 AM)
Average temperature yesterday: -7 °F

Past Weeks' High & Low Weather Summary

 TemperatureHumidityPressure
High1 °F (Feb 23, 5:00 AM)92% (Feb 23, 4:00 AM)30.75 "Hg (Feb 23, 4:00 AM)
Low-36 °F (Feb 14, 3:00 AM)59% (Feb 14, 12:00 AM)29.39 "Hg (Feb 23, 7:00 AM)
Average-22 °F72%30.08 "Hg
* Reported Feb 12 2:00 PM — Feb 27 2:00 PM, Arviat, Weather by CustomWeather, © 2015

Note: Actual official high and low records may vary slightly from our data, if they occured in-between our weather recording intervals... More about our weather records

Advertising

Arviat weather history for previous 24 hours

 ConditionsComfort  
Time TempWeatherWind HumidityBarometerVisibility
2:00 PM
Fri, Feb 27
-9 °FPassing clouds.6 mph77%29.92 "Hg15 mi
1:00 PM-9 °FScattered clouds.8 mph77%29.92 "Hg15 mi
12:00 PM-9 °FPartly sunny.9 mph70%29.92 "Hg15 mi
11:00 AM-9 °FPartly sunny.9 mph77%29.91 "Hg15 mi
10:00 AM-9 °FOvercast.10 mph77%29.89 "Hg15 mi
9:00 AM-11 °FPartly sunny.12 mph84%29.88 "Hg15 mi
8:00 AM-11 °FOvercast.12 mph76%29.88 "Hg15 mi
7:00 AM-11 °FOvercast.13 mph76%29.87 "Hg15 mi
6:00 AM-11 °FLight snow. Passing clouds.9 mph84%29.86 "Hg9 mi
5:00 AM-9 °FLight snow. Passing clouds.7 mph77%29.84 "Hg8 mi
4:58 AM-9 °FLight snow. Passing clouds.7 mph77%29.84 "Hg8 mi
4:00 AM-8 °FLight snow. Passing clouds.7 mph77%29.83 "Hg9 mi
3:50 AM-8 °FLight snow. Overcast.8 mph77%29.83 "Hg6 mi
3:00 AM-8 °FLight snow. Overcast.8 mph84%29.81 "Hg9 mi
2:00 AM-6 °FLight snow. Overcast.7 mph84%29.80 "Hg9 mi
1:46 AM-6 °FLight snow. Overcast.7 mph84%29.80 "Hg9 mi
1:00 AM-4 °FLight snow. Overcast.10 mph77%29.79 "Hg9 mi
12:00 AM-2 °FLight snow. Mostly cloudy.9 mph77%29.79 "Hg9 mi
11:00 PM
Thu, Feb 26
-2 °FLight snow. Overcast.8 mph84%29.80 "Hg9 mi
10:00 PM-2 °FLight snow. Overcast.12 mph84%29.81 "Hg9 mi
9:00 PM-2 °FLight snow. Overcast.12 mph84%29.82 "Hg9 mi
8:00 PM-2 °FLight snow. Mostly cloudy.15 mph84%29.83 "Hg6 mi
7:00 PM-2 °FLight snow. Overcast.16 mph84%29.84 "Hg8 mi
6:00 PM-2 °FLight snow. Overcast.15 mph84%29.86 "Hg5 mi
5:00 PM-2 °FLight snow. Mostly cloudy.12 mph84%29.89 "Hg12 mi
4:00 PM-2 °FMostly cloudy.18 mph77%29.90 "Hg15 mi
3:00 PM-2 °FPartly sunny.16 mph77%29.93 "Hg15 mi
Weather by CustomWeather, © 2015

See weather overviewHow to use our weather pages